TimeCST,TemperatureF,Dew PointF,Humidity,Sea Level PressureIn,VisibilityMPH,Wind Direction,Wind SpeedMPH,Gust SpeedMPH,PrecipitationIn,Events,Conditions,WindDirDegrees,DateUTC
12:15 AM,33.6,24.1,68,29.84,10.0,WNW,5.8,-,N/A,,Scattered Clouds,290,2013-02-05 06:15:00
12:35 AM,34.3,24.1,66,29.84,10.0,West,10.4,-,N/A,,Scattered Clouds,280,2013-02-05 06:35:00
12:55 AM,33.3,23.9,69,29.84,10.0,West,10.4,-,N/A,,Clear,270,2013-02-05 06:55:00
1:15 AM,33.4,23.9,68,29.84,10.0,West,5.8,-,N/A,,Clear,280,2013-02-05 07:15:00
1:35 AM,32.5,23.7,70,29.84,10.0,West,5.8,-,N/A,,Clear,270,2013-02-05 07:35:00
1:55 AM,33.6,23.9,68,29.84,10.0,WNW,6.9,-,N/A,,Clear,290,2013-02-05 07:55:00
2:15 AM,32.2,23.9,72,29.85,10.0,West,5.8,-,N/A,,Clear,280,2013-02-05 08:15:00
2:35 AM,32.2,23.7,71,29.85,10.0,West,8.1,-,N/A,,Clear,280,2013-02-05 08:35:00
2:55 AM,35.8,24.4,63,29.86,10.0,West,9.2,-,N/A,,Mostly Cloudy,270,2013-02-05 08:55:00
3:15 AM,34.7,23.7,64,29.86,10.0,West,6.9,-,N/A,,Mostly Cloudy,270,2013-02-05 09:15:00
3:35 AM,32.7,23.2,68,29.85,10.0,WSW,5.8,-,N/A,,Scattered Clouds,250,2013-02-05 09:35:00
3:55 AM,32.0,23.0,69,29.86,10.0,West,6.9,-,N/A,,Scattered Clouds,280,2013-02-05 09:55:00
4:15 AM,30.9,22.8,72,29.86,10.0,WNW,5.8,-,N/A,,Scattered Clouds,290,2013-02-05 10:15:00
4:35 AM,31.6,23.7,73,29.87,10.0,WNW,9.2,-,N/A,,Mostly Cloudy,290,2013-02-05 10:35:00
4:55 AM,31.8,23.7,72,29.87,10.0,West,10.4,-,N/A,,Scattered Clouds,280,2013-02-05 10:55:00
5:15 AM,32.0,23.9,72,29.89,10.0,West,10.4,-,N/A,,Clear,280,2013-02-05 11:15:00
5:35 AM,32.0,23.7,71,29.90,10.0,West,10.4,-,N/A,,Clear,280,2013-02-05 11:35:00
5:55 AM,32.4,23.7,70,29.89,10.0,West,11.5,-,N/A,,Clear,280,2013-02-05 11:55:00
6:15 AM,32.5,23.7,70,29.90,10.0,WNW,8.1,-,N/A,,Clear,290,2013-02-05 12:15:00
6:35 AM,32.2,23.5,70,29.91,10.0,WNW,10.4,-,N/A,,Clear,290,2013-02-05 12:35:00
6:55 AM,32.0,23.7,71,29.92,10.0,West,10.4,-,N/A,,Clear,280,2013-02-05 12:55:00
7:15 AM,32.5,23.9,70,29.93,10.0,WNW,9.2,-,N/A,,Scattered Clouds,290,2013-02-05 13:15:00
7:35 AM,32.0,23.9,72,29.94,10.0,West,9.2,-,N/A,,Mostly Cloudy,280,2013-02-05 13:35:00
7:55 AM,32.7,24.1,71,29.95,10.0,WNW,6.9,-,N/A,,Overcast,290,2013-02-05 13:55:00
8:15 AM,-9999,-9999,N/A,-9999,-9999.0,North,-9999.0,-,N/A,,Unknown,0,2013-02-05 14:15:00
8:35 AM,32.4,21.4,64,29.97,10.0,West,8.1,-,N/A,,Clear,280,2013-02-05 14:35:00
8:55 AM,34.5,24.4,67,29.98,10.0,West,9.2,-,N/A,,Scattered Clouds,280,2013-02-05 14:55:00
9:15 AM,37.6,25.3,61,30.00,10.0,West,11.5,-,N/A,,Scattered Clouds,280,2013-02-05 15:15:00
9:35 AM,41.4,26.2,55,30.00,10.0,NW,9.2,-,N/A,,Clear,320,2013-02-05 15:35:00
9:55 AM,43.3,26.2,51,30.01,10.0,NNW,11.5,17.3,N/A,,Mostly Cloudy,330,2013-02-05 15:55:00
10:15 AM,43.7,25.7,49,30.01,10.0,NNW,11.5,18.4,N/A,,Overcast,340,2013-02-05 16:15:00
10:35 AM,45.3,25.0,45,30.01,10.0,NNW,12.7,18.4,N/A,,Mostly Cloudy,340,2013-02-05 16:35:00
10:55 AM,45.5,23.4,42,30.02,10.0,NNW,15.0,-,N/A,,Clear,330,2013-02-05 16:55:00
11:15 AM,45.7,23.4,41,30.02,10.0,NNW,11.5,-,N/A,,Clear,330,2013-02-05 17:15:00
11:35 AM,47.1,23.2,39,30.03,10.0,NNW,10.4,-,N/A,,Clear,340,2013-02-05 17:35:00
11:55 AM,47.5,22.1,37,30.03,10.0,NNW,13.8,-,N/A,,Clear,330,2013-02-05 17:55:00
12:15 PM,48.0,22.8,37,30.03,10.0,NNW,8.1,-,N/A,,Clear,330,2013-02-05 18:15:00
12:35 PM,48.6,21.9,35,30.02,10.0,NNW,6.9,-,N/A,,Clear,340,2013-02-05 18:35:00
12:55 PM,48.9,21.0,33,30.01,10.0,NW,11.5,16.1,N/A,,Clear,320,2013-02-05 18:55:00
1:15 PM,49.6,21.2,33,30.01,10.0,NW,8.1,-,N/A,,Clear,310,2013-02-05 19:15:00
1:35 PM,50.5,20.3,30,29.99,10.0,NW,9.2,-,N/A,,Clear,320,2013-02-05 19:35:00
1:55 PM,50.4,19.8,30,29.99,10.0,West,3.5,-,N/A,,Clear,280,2013-02-05 19:55:00
2:15 PM,51.3,19.6,29,29.98,10.0,NW,9.2,-,N/A,,Clear,310,2013-02-05 20:15:00
2:35 PM,52.0,19.4,28,29.97,10.0,West,6.9,-,N/A,,Clear,280,2013-02-05 20:35:00
2:55 PM,51.8,19.2,28,29.96,10.0,West,8.1,-,N/A,,Clear,280,2013-02-05 20:55:00
3:15 PM,52.0,19.0,27,29.96,10.0,WSW,6.9,-,N/A,,Clear,240,2013-02-05 21:15:00
3:35 PM,51.8,18.9,27,29.95,10.0,Calm,Calm,-,N/A,,Clear,0,2013-02-05 21:35:00
3:55 PM,52.2,18.7,27,29.95,10.0,WSW,3.5,-,N/A,,Clear,250,2013-02-05 21:55:00
4:15 PM,51.8,18.5,27,29.95,10.0,Calm,Calm,-,N/A,,Clear,0,2013-02-05 22:15:00
4:35 PM,51.6,18.7,27,29.94,10.0,Calm,Calm,-,N/A,,Clear,0,2013-02-05 22:35:00
4:55 PM,50.9,18.5,28,29.94,10.0,Calm,Calm,-,N/A,,Clear,0,2013-02-05 22:55:00
5:15 PM,50.2,19.4,30,29.93,10.0,Calm,Calm,-,N/A,,Scattered Clouds,0,2013-02-05 23:15:00
5:35 PM,47.8,20.5,34,29.94,10.0,Calm,Calm,-,N/A,,Scattered Clouds,0,2013-02-05 23:35:00
5:55 PM,45.7,21.2,38,29.94,10.0,SE,3.5,-,N/A,,Scattered Clouds,130,2013-02-05 23:55:00
6:15 PM,43.2,22.1,43,29.94,10.0,SE,3.5,-,N/A,,Scattered Clouds,140,2013-02-06 00:15:00
6:35 PM,43.3,22.5,44,29.94,10.0,SSE,5.8,-,N/A,,Overcast,150,2013-02-06 00:35:00
6:55 PM,42.3,22.1,45,29.94,10.0,SE,6.9,-,N/A,,Overcast,140,2013-02-06 00:55:00
7:15 PM,40.5,22.3,48,29.94,10.0,SE,6.9,-,N/A,,Overcast,140,2013-02-06 01:15:00
7:35 PM,41.7,22.5,46,29.94,10.0,SSE,6.9,-,N/A,,Overcast,150,2013-02-06 01:35:00
7:55 PM,41.2,22.6,48,29.94,10.0,SE,6.9,-,N/A,,Overcast,140,2013-02-06 01:55:00
8:15 PM,41.5,22.3,46,29.93,10.0,SSE,9.2,-,N/A,,Overcast,150,2013-02-06 02:15:00
8:35 PM,41.7,21.7,45,29.93,10.0,SSE,9.2,-,N/A,,Overcast,160,2013-02-06 02:35:00
8:55 PM,42.6,21.2,43,29.92,10.0,South,10.4,-,N/A,,Overcast,170,2013-02-06 02:55:00
9:15 PM,42.8,20.7,41,29.91,10.0,South,12.7,-,N/A,,Scattered Clouds,180,2013-02-06 03:15:00
9:35 PM,43.7,20.5,40,29.90,10.0,South,16.1,-,N/A,,Scattered Clouds,170,2013-02-06 03:35:00
9:55 PM,43.2,20.3,40,29.90,10.0,South,17.3,21.9,N/A,,Scattered Clouds,170,2013-02-06 03:55:00
10:15 PM,43.3,20.1,40,29.90,10.0,SSE,13.8,-,N/A,,Scattered Clouds,160,2013-02-06 04:15:00
10:35 PM,43.0,19.8,40,29.90,10.0,South,11.5,-,N/A,,Scattered Clouds,170,2013-02-06 04:35:00
10:55 PM,42.4,19.8,40,29.90,10.0,SSE,11.5,-,N/A,,Mostly Cloudy,160,2013-02-06 04:55:00
11:15 PM,41.2,19.9,43,29.90,10.0,SSE,8.1,-,N/A,,Scattered Clouds,150,2013-02-06 05:15:00
11:35 PM,39.6,20.3,46,29.89,10.0,SSE,6.9,-,N/A,,Clear,150,2013-02-06 05:35:00
11:55 PM,39.4,20.8,47,29.89,10.0,South,10.4,-,N/A,,Clear,170,2013-02-06 05:55:00